[[{"header":{"parameterUnit":"m.s-1","parameterCategory":2,"la1":30.2991,"la2":30.254,"lo1":-89.0895,"lo2":-89.0444,"dy":0.0017,"dx":0.0017,"nx":28,"ny":28,"refTime":"2024-12-16T03:00:00:Z","depth":"0","parameterNumber":2,"parameterNumberName":"U-component_of_CURRENTS"},"data":[0,0,0,0,0,0,0,0,0,0,0,0,0,0,0,0,0,0,0,0,0,0,0,0,0,0,0,0,0,0,0,0,0,0,0,0,0,0,0,0,0,0,0,0,0,0,0,0,0,0,0,0,0,0,0,0,0,0,0.4769,0.477,0,0.4802,0.4803,0.4803,0.4807,0.4807,0.4807,0.4807,0.4781,0.4781,0.478,0,0,0,0,0,0,0,0,0,0,0,0,0,0.4713,0.4714,0.4769,0.477,0.4771,0.4802,0.4803,0.4803,0.4807,0.4807,0.4807,0.4807,0.4781,0.4781,0.478,0,0,0,0,0,0,0,0,0,0,0,0,0,0.4739,0.4714,0.4769,0.4779,0.478,0.4802,0.4803,0.4803,0.4807,0.4807,0.4807,0.4807,0.4782,0.4781,0.478,0.4776,0,0,0.4777,0.4777,0,0,0,0,0,0,0,0,0.4737,0.474,0.4776,0.4778,0.478,0.4803,0.4774,0.4792,0.4807,0.4794,0.4807,0.4807,0.4785,0.4784,0.4787,0.4775,0.4774,0.4777,0.4776,0.4776,0.4776,0,0,0,0,0,0,0,0.4735,0.4739,0.478,0.4777,0.4779,0.4783,0.4786,0.4777,0.4786,0.4795,0.4796,0.4804,0.4785,0.4788,0.4786,0.4773,0.4777,0.4776,0.4775,0.4775,0.4795,0.4796,0,0,0,0,0,0,0.4737,0.4737,0.4779,0.4781,0.4761,0.4784,0.4787,0.4793,0.4788,0.4788,0.4804,0.4804,0.479,0.4787,0.4785,0.4815,0.4776,0.4775,0.4774,0.4793,0.4795,0.4796,0,0,0,0,0,0,0.4735,0.474,0.4777,0.4762,0.4767,0.4785,0.4792,0.4794,0.4804,0.4796,0.4794,0.4812,0.4789,0.4787,0.4789,0.4813,0.4775,0.4774,0.4792,0.4794,0.4795,0.4853,0,0,0,0,0,0,0.4734,0.4739,0.4747,0.4762,0.4768,0.4797,0.4792,0.4795,0.481,0.481,0.4802,0.48,0.4789,0.479,0.4788,0.4811,0.4773,0.4791,0.4793,0.4795,0.485,0.4856,0.4862,0,0,0,0,0,0.4731,0.4731,0.4747,0.4752,0.4777,0.4798,0.4802,0.4812,0.481,0.4818,0.4815,0.48,0.4802,0.479,0.4787,0.4811,0.479,0.4792,0.4795,0.4847,0.4855,0.4862,0,0,0,0,0,0,0.4691,0.4733,0.4749,0.4758,0.4785,0.48,0.4804,0.4816,0.4821,0.4816,0.4808,0.4805,0.4822,0.4805,0.4793,0.4823,0.4796,0.4797,0.4836,0.4844,0.485,0.4877,0.4772,0,0,0,0,0,0.4693,0.4715,0.4749,0.4756,0.4769,0.479,0.4801,0.4812,0.4819,0.4821,0.4823,0.4822,0.4829,0.4826,0.4829,0.4835,0.4874,0.4851,0.4857,0.4862,0.4883,0.495,0.4965,0.4804,0.4804,0.4804,0,0,0.4679,0.4705,0.4716,0.4752,0.4768,0.4794,0.4795,0.4811,0.484,0.4816,0.4845,0.4844,0.4838,0.4856,0.4861,0.4843,0.4935,0.4865,0.487,0.4888,0.4955,0.4971,0.4985,0.4805,0.4805,0.4805,0,0,0.466,0.4685,0.4701,0.4731,0.4768,0.4789,0.4798,0.4827,0.4848,0.4874,0.4873,0.4891,0.4891,0.4904,0.4906,0.4946,0.497,0.4941,0.4988,0.5053,0.5068,0.5081,0.5182,0.5204,0.4938,0.4938,0.4938,0,0.4645,0.4673,0.4706,0.4732,0.4759,0.479,0.4814,0.4843,0.4874,0.4902,0.4889,0.4932,0.4921,0.4963,0.4979,0.4962,0.5016,0.4958,0.5064,0.5077,0.5089,0.519,0.5213,0.4941,0.4941,0.494,0.494,0,0.4647,0.4675,0.4681,0.4738,0.477,0.4792,0.4845,0.4882,0.491,0.4946,0.5,0.4999,0.5031,0.5027,0.5013,0.5093,0.5112,0.507,0.5048,0.511,0.5212,0.5235,0.4946,0.4944,0.4943,0.4943,0,0,0.4603,0.4674,0.4678,0.4711,0.478,0.4803,0.4865,0.4935,0.4991,0.5023,0.5102,0.5111,0.5128,0.5134,0.5126,0.5172,0.5309,0.5163,0.5165,0.5272,0.5498,0.5485,0.5509,0.5287,0.529,0.5293,0.5547,0,0.46,0.464,0.4688,0.4739,0.4765,0.4835,0.4896,0.4966,0.5031,0.5118,0.5148,0.5208,0.5165,0.519,0.5235,0.5295,0.5368,0.5247,0.5416,0.5422,0.5409,0.5534,0.5289,0.5491,0.5569,0.5573,0.5576,0,0.459,0.4626,0.4665,0.4755,0.4776,0.4815,0.4932,0.4993,0.5123,0.5183,0.5258,0.5299,0.5393,0.5336,0.5491,0.542,0.5477,0.5512,0.5521,0.5505,0.5451,0.5435,0.553,0.5381,0.5612,0.5609,0.5606,0,0.4537,0.4612,0.4642,0.4671,0.4775,0.4816,0.4878,0.5001,0.5086,0.5234,0.5326,0.5423,0.5506,0.5576,0.5672,0.5595,0.5861,0.5755,0.5805,0.5806,0.5629,0.5608,0.5601,0.5879,0.5879,0.5878,0.5877,0,0.452,0.455,0.4616,0.4637,0.4706,0.4779,0.4877,0.497,0.512,0.5252,0.535,0.5492,0.5571,0.5728,0.5764,0.5901,0.5947,0.5867,0.588,0.5645,0.5624,0.5508,0.5447,0.5888,0.5886,0.5884,0.5882,0,0.4475,0.451,0.4556,0.4645,0.468,0.4726,0.4878,0.4962,0.5106,0.5292,0.5353,0.5588,0.5808,0.5912,0.608,0.6039,0.5985,0.6177,0.5925,0.5902,0.5728,0.568,0.5546,0.5375,0.6249,0.625,0.6251,0,0.4465,0.4474,0.4549,0.4583,0.4628,0.4711,0.4788,0.4939,0.5048,0.5364,0.5464,0.5744,0.5952,0.6222,0.6219,0.6324,0.6099,0.6117,0.5894,0.574,0.5696,0.5455,0.53,0.5703,0.57,0.5697,0.5695,0,0.4468,0.4476,0.4517,0.457,0.4635,0.4719,0.4836,0.4914,0.5128,0.5299,0.5569,0.5764,0.6061,0.6073,0.6217,0.6223,0.5802,0.6062,0.5942,0.5327,0.5022,0.4855,0.5556,0.5669,0.5672,0.5674,0.5675,0.5676,0.4472,0.4491,0.4525,0.4578,0.4645,0.4712,0.474,0.4889,0.505,0.5256,0.5525,0.5709,0.5842,0.6016,0.5999,0.5756,0.5715,0.5507,0.5492,0.5286,0.5,0.5689,0.5779,0.5781,0.5784,0.5786,0.5788,0,0.4474,0.4498,0.4543,0.4584,0.4611,0.4667,0.4767,0.4761,0.4887,0.5125,0.5318,0.5402,0.5471,0.5512,0.5383,0.5168,0.4885,0.5023,0.4585,0.4481,0.5139,0.4991,0.4863,0.4863,0.4863,0.4864,0.4864,0.4864,0.4474,0.4499,0.4511,0.4538,0.4558,0.4537,0.4552,0.4561,0.4658,0.4695,0.471,0.4824,0.5007,0.5093,0.4872,0.4741,0.4336,0.4171,0.4177,0.4616,0.4656,0.4694,0.4537,0.4316,0.4315,0.3255,0.3247,0.3242]},{"header":{"parameterUnit":"m.s-1","parameterCategory":2,"la1":30.2991,"la2":30.254,"lo1":-89.0895,"lo2":-89.0444,"dy":0.0017,"dx":0.0017,"nx":28,"ny":28,"refTime":"2024-12-16T03:00:00:Z","depth":"0","parameterNumber":3,"parameterNumberName":"V-component_of_CURRENTS"},"data":[0,0,0,0,0,0,0,0,0,0,0,0,0,0,0,0,0,0,0,0,0,0,0,0,0,0,0,0,0,0,0,0,0,0,0,0,0,0,0,0,0,0,0,0,0,0,0,0,0,0,0,0,0,0,0,0,0,0,-0.0341,-0.0341,0,-0.0399,-0.04,-0.0401,-0.0457,-0.0458,-0.0458,-0.0459,-0.0565,-0.0568,-0.057,0,0,0,0,0,0,0,0,0,0,0,0,0,-0.0338,-0.0338,-0.0341,-0.0341,-0.0342,-0.0399,-0.04,-0.0401,-0.0457,-0.0458,-0.0458,-0.0459,-0.0565,-0.0567,-0.057,0,0,0,0,0,0,0,0,0,0,0,0,0,-0.0365,-0.0338,-0.0341,-0.0374,-0.0378,-0.0398,-0.04,-0.0401,-0.0457,-0.0458,-0.0459,-0.0459,-0.0564,-0.0567,-0.0571,-0.058,0,0,-0.0582,-0.0584,0,0,0,0,0,0,0,0,-0.0363,-0.0366,-0.0369,-0.0372,-0.0376,-0.0419,-0.0438,-0.0462,-0.0457,-0.0431,-0.0459,-0.0459,-0.0518,-0.0526,-0.0539,-0.0585,-0.059,-0.0582,-0.0585,-0.0586,-0.0587,0,0,0,0,0,0,0,-0.0361,-0.0364,-0.0367,-0.0369,-0.0373,-0.0406,-0.0411,-0.0443,-0.0474,-0.0433,-0.0436,-0.0437,-0.0521,-0.0535,-0.0542,-0.0592,-0.0582,-0.0585,-0.0588,-0.0589,-0.0645,-0.0644,0,0,0,0,0,0,-0.0344,-0.0361,-0.0365,-0.0369,-0.0367,-0.0405,-0.0411,-0.0407,-0.0472,-0.0481,-0.0437,-0.044,-0.0529,-0.0538,-0.0546,-0.0534,-0.0586,-0.0589,-0.0592,-0.0645,-0.0644,-0.0644,0,0,0,0,0,0,-0.0343,-0.0343,-0.0363,-0.0364,-0.0369,-0.0404,-0.04,-0.0408,-0.0418,-0.0474,-0.0485,-0.0438,-0.053,-0.0541,-0.056,-0.0539,-0.0591,-0.0594,-0.0646,-0.0645,-0.0644,-0.0527,0,0,0,0,0,0,-0.0343,-0.0343,-0.0338,-0.0363,-0.0368,-0.036,-0.0399,-0.0408,-0.0416,-0.042,-0.0478,-0.0489,-0.0531,-0.0554,-0.0564,-0.0545,-0.0597,-0.0647,-0.0646,-0.0644,-0.0532,-0.0522,-0.0513,0,0,0,0,0,-0.0342,-0.0317,-0.0337,-0.0338,-0.0358,-0.0359,-0.0364,-0.0395,-0.0415,-0.0409,-0.0447,-0.0487,-0.0553,-0.0556,-0.0568,-0.055,-0.0648,-0.0646,-0.0644,-0.0536,-0.0524,-0.0514,0,0,0,0,0,0,-0.0306,-0.0321,-0.0343,-0.0324,-0.0338,-0.0367,-0.0359,-0.0385,-0.0411,-0.0416,-0.0475,-0.0488,-0.05,-0.0541,-0.0543,-0.0564,-0.0608,-0.0609,-0.0522,-0.0511,-0.0502,-0.0471,-0.06,0,0,0,0,0,-0.0297,-0.0289,-0.031,-0.0296,-0.0295,-0.0329,-0.0335,-0.0355,-0.0379,-0.0391,-0.0433,-0.0475,-0.0503,-0.0518,-0.0554,-0.056,-0.0579,-0.0559,-0.055,-0.0542,-0.0524,-0.0541,-0.0531,-0.0638,-0.0638,-0.0638,0,0,-0.0279,-0.0287,-0.0283,-0.0289,-0.0301,-0.0281,-0.0334,-0.0329,-0.0317,-0.0398,-0.0397,-0.0446,-0.0498,-0.0506,-0.0515,-0.0535,-0.0516,-0.054,-0.0532,-0.0519,-0.0538,-0.0527,-0.0518,-0.0637,-0.0637,-0.0638,0,0,-0.022,-0.0243,-0.0209,-0.0215,-0.0224,-0.0243,-0.0236,-0.0262,-0.0278,-0.0288,-0.0339,-0.037,-0.0419,-0.0447,-0.0468,-0.0431,-0.047,-0.0447,-0.0371,-0.0387,-0.0377,-0.037,-0.0352,-0.0343,-0.0439,-0.0439,-0.0439,0,-0.0198,-0.0163,-0.0199,-0.0165,-0.0159,-0.0216,-0.0173,-0.0194,-0.0228,-0.0228,-0.0273,-0.0331,-0.0389,-0.038,-0.0374,-0.0409,-0.0411,-0.0404,-0.0372,-0.0365,-0.0359,-0.0343,-0.0336,-0.0433,-0.0434,-0.0434,-0.0435,0,-0.0109,-0.0089,-0.0065,-0.0047,-0.0044,-0.0021,-0.0048,-0.0052,-0.0089,-0.0117,-0.0132,-0.0211,-0.0244,-0.027,-0.0314,-0.0293,-0.0304,-0.0358,-0.0392,-0.0341,-0.0328,-0.0322,-0.0425,-0.0427,-0.0429,-0.043,0,0,-0.0041,-0.0008,-0.0001,0.0027,0.0018,0.0037,0.0058,0.0066,0.0098,0.0026,0.006,-0.0023,-0.0079,-0.0106,-0.0169,-0.0188,-0.0157,-0.0244,-0.0248,-0.0211,-0.0153,-0.0147,-0.014,-0.02,-0.0199,-0.0199,-0.015,0,0.0038,0.0131,0.0117,0.0193,0.0238,0.0194,0.0227,0.0218,0.0192,0.0207,0.0115,0.0105,-0.0011,-0.0023,-0.0061,-0.0126,-0.0139,-0.0162,-0.0222,-0.0223,-0.0212,-0.0133,-0.013,-0.0086,-0.0145,-0.0144,-0.0143,0,0.0131,0.018,0.0275,0.0324,0.0342,0.0373,0.0417,0.0439,0.0431,0.0408,0.0368,0.029,0.0249,0.0133,0.0052,0.0048,-0.0041,-0.0104,-0.0104,-0.0135,-0.0206,-0.0155,-0.0073,-0.0337,-0.0135,-0.0136,-0.0136,0,0.0209,0.0286,0.0366,0.0381,0.043,0.0465,0.0493,0.0505,0.0552,0.054,0.0568,0.0477,0.0457,0.033,0.018,0.0119,0.0113,0.0001,-0.0072,-0.0071,-0.0098,-0.0102,-0.0268,-0.0057,-0.0057,-0.0057,-0.0057,0,0.0294,0.0356,0.0413,0.0457,0.0565,0.0562,0.0671,0.0678,0.0724,0.0817,0.0679,0.0743,0.0503,0.0453,0.0281,0.0164,0.0185,-0.0024,-0.0052,-0.0055,-0.0056,-0.0314,-0.0477,-0.0055,-0.0056,-0.0056,-0.0056,0,0.0359,0.0393,0.0495,0.0572,0.0605,0.0685,0.0793,0.0876,0.0896,0.1019,0.102,0.0962,0.0913,0.0704,0.0534,0.032,0.0046,0.0129,0.0164,0.0137,-0.0228,-0.0383,-0.056,-0.0665,0.004,0.004,0.0041,0,0.0393,0.0455,0.0585,0.0661,0.0699,0.0815,0.0905,0.0957,0.1057,0.1183,0.1262,0.1241,0.1297,0.1066,0.0699,0.0435,0.0143,0.0189,0.0036,-0.0213,-0.0408,-0.0536,-0.0622,0.0057,0.0058,0.0058,0.0059,0,0.0458,0.0509,0.0603,0.0765,0.0873,0.1003,0.1136,0.1244,0.134,0.1484,0.1673,0.1743,0.1532,0.129,0.0878,0.0629,-0.0014,0.0187,-0.0092,-0.0409,-0.0538,-0.0663,0.0005,0.0063,0.0062,0.0062,0.0062,0.0062,0.0506,0.059,0.072,0.0871,0.1005,0.1164,0.1292,0.1472,0.1687,0.1961,0.2013,0.2253,0.1793,0.126,0.0862,0.0067,0.0044,-0.0214,-0.0373,-0.0472,-0.0609,0.0093,0.0118,0.0118,0.0118,0.0118,0.0118,0,0.0568,0.0667,0.0812,0.0994,0.1146,0.12,0.1427,0.1597,0.1895,0.2265,0.2508,0.2508,0.1915,0.1243,0.018,-0.0392,-0.0643,-0.0724,-0.0943,-0.0999,-0.0383,-0.0422,-0.0488,-0.0488,-0.0488,-0.0487,-0.0487,-0.0487,0.061,0.0751,0.0827,0.1065,0.1196,0.1395,0.153,0.1835,0.2152,0.2647,0.2927,0.3106,0.2558,0.0627,-0.0666,-0.097,-0.1409,-0.1495,-0.1685,-0.1329,-0.1295,-0.1263,-0.1339,-0.1596,-0.1597,-0.2238,-0.2245,-0.225]}],[{"header":{"parameterUnit":"m.s-1","parameterCategory":2,"la1":30.2991,"la2":30.254,"lo1":-89.0895,"lo2":-89.0444,"dy":0.0017,"dx":0.0017,"nx":28,"ny":28,"refTime":"2024-12-16T03:00:00:Z","depth":"2","parameterNumber":2,"parameterNumberName":"U-component_of_CURRENTS"},"data":[0,0,0,0,0,0,0,0,0,0,0,0,0,0,0,0,0,0,0,0,0,0,0,0,0,0,0,0,0,0,0,0,0,0,0,0,0,0,0,0,0,0,0,0,0,0,0,0,0,0,0,0,0,0,0,0,0,0,0.3407,0.3407,0,0.3438,0.3438,0.3438,0.3471,0.3472,0.3472,0.3473,0.35,0.35,0.35,0,0,0,0,0,0,0,0,0,0,0,0,0,0.3351,0.3352,0.3407,0.3407,0.3408,0.3438,0.3438,0.3438,0.3471,0.3472,0.3472,0.3473,0.35,0.35,0.35,0,0,0,0,0,0,0,0,0,0,0,0,0,0.3376,0.3352,0.3407,0.343,0.3432,0.3438,0.3438,0.3438,0.3471,0.3472,0.3473,0.3474,0.35,0.35,0.35,0.348,0,0,0.35,0.35,0,0,0,0,0,0,0,0,0.3374,0.3377,0.3426,0.3428,0.3431,0.3454,0.3429,0.3453,0.347,0.3453,0.3473,0.3474,0.3485,0.3486,0.3486,0.3481,0.3482,0.35,0.35,0.35,0.35,0,0,0,0,0,0,0,0.3373,0.3376,0.3416,0.3426,0.343,0.3431,0.3435,0.3433,0.3461,0.3455,0.3458,0.3465,0.3486,0.3486,0.3487,0.3483,0.35,0.35,0.35,0.35,0.3585,0.3587,0,0,0,0,0,0,0.3374,0.3375,0.3416,0.3418,0.3408,0.3431,0.3436,0.3443,0.3461,0.3466,0.3464,0.3467,0.3485,0.3487,0.3488,0.3557,0.35,0.35,0.35,0.3583,0.3586,0.3588,0,0,0,0,0,0,0.3373,0.3378,0.3414,0.3399,0.3404,0.3431,0.3439,0.3444,0.3469,0.3469,0.3473,0.3489,0.3486,0.3488,0.3529,0.3555,0.35,0.3501,0.358,0.3584,0.3587,0.3636,0,0,0,0,0,0,0.3371,0.3377,0.3381,0.3399,0.3405,0.3443,0.3439,0.3443,0.3472,0.3476,0.3491,0.3493,0.3487,0.3529,0.3529,0.3554,0.3501,0.3578,0.3582,0.3586,0.3632,0.3641,0.3649,0,0,0,0,0,0.3369,0.3369,0.3381,0.3386,0.3411,0.3445,0.3449,0.3468,0.3472,0.3493,0.3514,0.3494,0.3555,0.3531,0.353,0.3556,0.3576,0.3581,0.3585,0.3628,0.3639,0.3649,0,0,0,0,0,0,0.3349,0.3373,0.3387,0.3395,0.3432,0.3452,0.3468,0.3481,0.351,0.352,0.3516,0.352,0.3567,0.356,0.3533,0.3597,0.3564,0.3569,0.3597,0.3607,0.3615,0.3625,0.3501,0,0,0,0,0,0.3346,0.3355,0.3389,0.3402,0.3423,0.345,0.3465,0.3486,0.3513,0.3527,0.3535,0.3555,0.3581,0.3594,0.361,0.3637,0.366,0.3658,0.3667,0.3674,0.3685,0.375,0.3765,0.3604,0.3604,0.3604,0,0,0.3344,0.3358,0.3365,0.3399,0.3427,0.3458,0.3462,0.3502,0.3532,0.3524,0.3565,0.3582,0.3597,0.3638,0.3658,0.3638,0.3735,0.368,0.3685,0.3693,0.3757,0.3772,0.3786,0.3608,0.3607,0.3606,0,0,0.3347,0.3362,0.3377,0.3408,0.3457,0.3475,0.3494,0.3533,0.356,0.3605,0.3612,0.3656,0.3678,0.3702,0.3715,0.378,0.3779,0.3783,0.3827,0.389,0.3904,0.3916,0.3976,0.3993,0.3784,0.3784,0.3784,0,0.3343,0.3365,0.339,0.3418,0.3446,0.3487,0.3522,0.3553,0.3599,0.3632,0.3632,0.3706,0.3712,0.3774,0.3801,0.3797,0.3834,0.3782,0.39,0.3912,0.3924,0.3983,0.4001,0.3787,0.3787,0.3786,0.3786,0,0.3362,0.3385,0.3402,0.3447,0.3483,0.3521,0.3574,0.3616,0.365,0.3682,0.3762,0.3786,0.3836,0.3843,0.384,0.3925,0.3926,0.3903,0.387,0.3943,0.4001,0.4019,0.3791,0.379,0.3789,0.3789,0,0,0.3333,0.3399,0.3407,0.3433,0.3503,0.3531,0.36,0.367,0.3727,0.3775,0.3851,0.3899,0.3925,0.3944,0.3952,0.3999,0.4109,0.3989,0.3991,0.4042,0.426,0.4209,0.4224,0.4109,0.4112,0.4114,0.4272,0,0.3342,0.3386,0.3425,0.3478,0.3507,0.3574,0.3632,0.3706,0.3778,0.3859,0.3913,0.3985,0.396,0.4001,0.4048,0.4103,0.4158,0.407,0.4189,0.4193,0.4132,0.4243,0.3906,0.4014,0.4289,0.4292,0.4294,0,0.3342,0.3372,0.3422,0.3496,0.352,0.3562,0.3676,0.374,0.3868,0.3933,0.4022,0.4069,0.4165,0.4127,0.4261,0.421,0.4245,0.4273,0.4279,0.4226,0.4175,0.3985,0.4036,0.4324,0.4322,0.4319,0.4317,0,0.3297,0.3364,0.34,0.3425,0.3519,0.3568,0.3633,0.3762,0.3844,0.3994,0.4077,0.4181,0.4266,0.4324,0.4389,0.4342,0.4533,0.4471,0.4459,0.4455,0.4189,0.4157,0.4568,0.4567,0.4567,0.4567,0.4566,0,0.3276,0.3306,0.338,0.3402,0.3468,0.3546,0.3653,0.3745,0.3895,0.3999,0.4112,0.4216,0.4323,0.4434,0.4454,0.4534,0.4594,0.4501,0.4505,0.4199,0.4167,0.444,0.4423,0.4572,0.4571,0.457,0.4569,0,0.3224,0.3275,0.3314,0.3407,0.345,0.3498,0.3662,0.3728,0.3891,0.4039,0.4095,0.429,0.4443,0.4535,0.4665,0.4632,0.4694,0.4697,0.4338,0.4297,0.4555,0.454,0.4706,0.4706,0.4706,0.4706,0.4706,0,0.3192,0.3206,0.3304,0.3335,0.3383,0.3478,0.3544,0.3713,0.3796,0.4068,0.4122,0.4346,0.4452,0.4646,0.4658,0.4718,0.4754,0.4415,0.4255,0.4589,0.4577,0.456,0.4545,0.3926,0.3919,0.3914,0.391,0,0.3131,0.3172,0.3219,0.3279,0.334,0.3403,0.3515,0.3578,0.3776,0.3892,0.4061,0.4178,0.4422,0.4348,0.4463,0.4436,0.4376,0.4311,0.4773,0.3946,0.3867,0.385,0.3857,0.3862,0.3867,0.387,0.3873,0.3875,0.3087,0.3095,0.3155,0.3205,0.327,0.3288,0.3294,0.34,0.3489,0.3618,0.3857,0.3925,0.4057,0.4064,0.3982,0.3934,0.4221,0.4006,0.4017,0.4034,0.3919,0.3844,0.3814,0.3818,0.3822,0.3825,0.3828,0,0.2992,0.3024,0.3067,0.3094,0.308,0.3175,0.3234,0.3174,0.3184,0.337,0.3484,0.3309,0.3333,0.3454,0.3327,0.3364,0.3265,0.3213,0.3034,0.3089,0.3135,0.2965,0.2612,0.2607,0.2603,0.2599,0,0,0.2953,0.2944,0.2958,0.2894,0.291,0.2831,0.2826,0.2768,0.2834,0.2799,0.2844,0.3176,0.3362,0.2922,0.2908,0.2723,0.2859,0.2623,0.3617,0.3462,0.3501,0.3639,0.3448,0,0,0,0,0]},{"header":{"parameterUnit":"m.s-1","parameterCategory":2,"la1":30.2991,"la2":30.254,"lo1":-89.0895,"lo2":-89.0444,"dy":0.0017,"dx":0.0017,"nx":28,"ny":28,"refTime":"2024-12-16T03:00:00:Z","depth":"2","parameterNumber":3,"parameterNumberName":"V-component_of_CURRENTS"},"data":[0,0,0,0,0,0,0,0,0,0,0,0,0,0,0,0,0,0,0,0,0,0,0,0,0,0,0,0,0,0,0,0,0,0,0,0,0,0,0,0,0,0,0,0,0,0,0,0,0,0,0,0,0,0,0,0,0,0,0.0239,0.0238,0,0.0172,0.0171,0.017,0.0119,0.0119,0.0118,0.0118,0.0023,0.0021,0.0019,0,0,0,0,0,0,0,0,0,0,0,0,0,0.0251,0.0252,0.0239,0.0238,0.0237,0.0172,0.0171,0.017,0.0119,0.0119,0.0118,0.0118,0.0024,0.0022,0.0019,0,0,0,0,0,0,0,0,0,0,0,0,0,0.0221,0.0252,0.0239,0.0205,0.0201,0.0172,0.0171,0.017,0.0119,0.0119,0.0118,0.0118,0.0025,0.0022,0.0019,0.001,0,0,0.0009,0.0007,0,0,0,0,0,0,0,0,0.0223,0.022,0.0211,0.0207,0.0203,0.0154,0.0141,0.0115,0.0119,0.0149,0.0118,0.0117,0.0066,0.0059,0.0047,0.0006,0.0002,0.0008,0.0006,0.0005,0.0004,0,0,0,0,0,0,0,0.0225,0.0222,0.0211,0.021,0.0205,0.0169,0.0164,0.0136,0.011,0.0147,0.0143,0.0138,0.0063,0.005,0.0044,0.0,0.0008,0.0006,0.0004,0.0002,-0.0068,-0.0068,0,0,0,0,0,0,0.024,0.0225,0.0214,0.0209,0.0213,0.0169,0.0164,0.017,0.0111,0.0102,0.0138,0.0135,0.0056,0.0048,0.004,0.0035,0.0005,0.0002,0.0,-0.0068,-0.0068,-0.0068,0,0,0,0,0,0,0.0241,0.024,0.0216,0.0216,0.021,0.017,0.0176,0.0169,0.0156,0.0105,0.0095,0.0134,0.0055,0.0045,0.002,0.0031,0.0001,-0.0002,-0.0068,-0.0068,-0.0068,0.002,0,0,0,0,0,0,0.0241,0.0241,0.0249,0.0217,0.0211,0.0209,0.0177,0.0168,0.0154,0.015,0.0098,0.0088,0.0054,0.0025,0.0017,0.0026,-0.0005,-0.0068,-0.0068,-0.0068,0.0017,0.0023,0.0028,0,0,0,0,0,0.0242,0.0263,0.025,0.0248,0.0224,0.021,0.0204,0.0172,0.0155,0.0157,0.012,0.009,0.002,0.0023,0.0013,0.0021,-0.0068,-0.0068,-0.0068,0.0014,0.0022,0.0028,0,0,0,0,0,0,0.0269,0.0259,0.0244,0.0259,0.0238,0.0202,0.0201,0.0178,0.0151,0.0144,0.0095,0.0083,0.0065,0.0029,0.0034,-0.0001,-0.0031,-0.0033,0.0035,0.0041,0.0047,0.0072,-0.0008,0,0,0,0,0,0.0281,0.0295,0.027,0.0281,0.0275,0.0238,0.0227,0.0206,0.0178,0.0164,0.0129,0.0088,0.0057,0.004,0.0006,-0.0009,-0.0045,-0.0013,-0.0007,-0.0002,0.001,-0.0038,-0.0035,-0.0067,-0.0067,-0.0067,0,0,0.0291,0.0289,0.0294,0.0287,0.0268,0.0274,0.023,0.0222,0.0226,0.0159,0.0153,0.0109,0.0057,0.004,0.0028,0.0013,-0.0013,-0.0002,0.0003,0.0012,-0.0037,-0.0034,-0.0031,-0.0067,-0.0067,-0.0067,0,0,0.0326,0.032,0.0344,0.0337,0.0319,0.0301,0.0303,0.0271,0.0255,0.024,0.0194,0.016,0.0112,0.008,0.0057,0.0073,0.002,0.0056,0.0105,0.0059,0.0062,0.0064,0.0025,0.0022,0.0058,0.0058,0.0058,0,0.0337,0.0368,0.0345,0.0366,0.037,0.0321,0.0345,0.0323,0.0287,0.0282,0.0249,0.018,0.0133,0.0116,0.0116,0.0088,0.0053,0.0088,0.0069,0.007,0.007,0.0029,0.0026,0.0062,0.0062,0.0062,0.0061,0,0.0391,0.0412,0.0426,0.0442,0.0441,0.0453,0.0427,0.042,0.0391,0.0364,0.0335,0.0265,0.0227,0.0199,0.0161,0.0144,0.0116,0.0084,0.0058,0.0079,0.0034,0.0029,0.0069,0.0067,0.0066,0.0065,0,0,0.0423,0.0459,0.0463,0.0492,0.0486,0.0498,0.0506,0.0504,0.0521,0.0457,0.0466,0.039,0.0344,0.0314,0.0255,0.0208,0.0174,0.0153,0.0148,0.0126,0.0076,0.004,0.003,0.0137,0.0136,0.0136,0.0044,0,0.047,0.054,0.0537,0.0598,0.0633,0.0605,0.0623,0.0611,0.0586,0.058,0.0493,0.0474,0.039,0.0374,0.0312,0.0215,0.0163,0.0202,0.0048,0.0043,0.0019,0.0024,0.0057,-0.0023,0.0039,0.0038,0.0037,0,0.0521,0.0568,0.0641,0.0698,0.0709,0.0732,0.0765,0.0778,0.0747,0.0727,0.068,0.0608,0.0537,0.0458,0.03,0.0328,0.0212,0.0123,0.0117,0.0052,-0.0002,-0.0038,-0.0036,0.0028,0.0028,0.0029,0.003,0,0.0573,0.0641,0.0709,0.0727,0.0775,0.0801,0.0824,0.082,0.0861,0.0826,0.0838,0.0725,0.0689,0.0525,0.0333,0.0317,0.0153,0.0106,-0.0037,-0.004,-0.0059,-0.0063,-0.001,-0.001,-0.001,-0.001,-0.001,0,0.0633,0.0687,0.0742,0.0782,0.0872,0.0873,0.096,0.096,0.0986,0.105,0.0923,0.0942,0.0703,0.0575,0.0378,0.0163,0.0184,-0.0023,-0.0066,-0.0028,-0.0029,-0.0023,-0.0023,-0.0013,-0.0013,-0.0012,-0.0011,0,0.0679,0.071,0.0801,0.0871,0.0901,0.0968,0.1072,0.1139,0.1138,0.1217,0.1213,0.1115,0.095,0.0694,0.0439,0.0244,0.0026,-0.006,0.0003,-0.0032,-0.015,-0.0145,-0.0227,-0.0229,-0.0231,-0.0232,-0.0233,0,0.0714,0.0765,0.0875,0.0945,0.0982,0.1086,0.1166,0.1213,0.1305,0.1335,0.1389,0.125,0.1184,0.0787,0.0419,0.0065,0.0021,-0.0145,-0.0182,-0.0139,-0.0172,-0.0164,-0.0157,-0.0172,-0.0173,-0.0173,-0.0174,0,0.0787,0.0818,0.0895,0.1041,0.1141,0.1273,0.1395,0.1494,0.1559,0.1612,0.1672,0.1614,0.1239,0.089,0.0388,0.0147,-0.0091,-0.0167,-0.0135,-0.0121,-0.0095,-0.0125,-0.0118,-0.0178,-0.0178,-0.0177,-0.0177,-0.0177,0.0839,0.0909,0.1012,0.1152,0.1278,0.1447,0.1574,0.1706,0.1852,0.195,0.1893,0.1813,0.14,0.0771,0.0335,-0.0127,-0.0109,-0.0271,-0.0266,-0.0262,-0.0238,-0.0215,-0.0317,-0.0317,-0.0317,-0.0318,-0.0318,0,0.0914,0.0995,0.1125,0.1293,0.1444,0.1501,0.1723,0.1846,0.2027,0.2095,0.213,0.1734,0.1328,0.0849,0.0164,-0.0246,-0.027,-0.0373,-0.031,-0.0303,-0.0297,-0.0273,-0.0363,-0.0365,-0.0366,-0.0367,0,0,0.0956,0.1088,0.1156,0.1406,0.1532,0.1749,0.1889,0.2044,0.215,0.2212,0.2168,0.2079,0.1485,0.0988,0.0425,0.0031,-0.0038,-0.0046,0.0034,0.0181,0.0192,-0.0198,-0.0148,0,0,0,0,0]}],[{"header":{"parameterUnit":"m.s-1","parameterCategory":2,"la1":30.2991,"la2":30.254,"lo1":-89.0895,"lo2":-89.0444,"dy":0.0017,"dx":0.0017,"nx":28,"ny":28,"refTime":"2024-12-16T03:00:00:Z","depth":"4","parameterNumber":2,"parameterNumberName":"U-component_of_CURRENTS"},"data":[0,0,0,0,0,0,0,0,0,0,0,0,0,0,0,0,0,0,0,0,0,0,0,0,0,0,0,0,0,0,0,0,0,0,0,0,0,0,0,0,0,0,0,0,0,0,0,0,0,0,0,0,0,0,0,0,0,0,0.2102,0.2104,0,0.2214,0.2214,0.2215,0.2292,0.2293,0.2294,0.2295,0.2413,0.2415,0.2417,0,0,0,0,0,0,0,0,0,0,0,0,0,0.1953,0.1955,0.2102,0.2104,0.2106,0.2213,0.2214,0.2215,0.2291,0.2293,0.2294,0.2295,0.2412,0.2415,0.2417,0,0,0,0,0,0,0,0,0,0,0,0,0,0.2031,0.1955,0.2102,0.216,0.2167,0.2213,0.2215,0.2216,0.2291,0.2293,0.2294,0.2296,0.2411,0.2414,0.2418,0.2407,0,0,0.2427,0.2429,0,0,0,0,0,0,0,0,0.2027,0.2036,0.215,0.2157,0.2164,0.2245,0.2206,0.2282,0.2291,0.2239,0.2295,0.2297,0.2359,0.2367,0.2377,0.2412,0.2417,0.2428,0.243,0.2431,0.2432,0,0,0,0,0,0,0,0.2021,0.2032,0.2141,0.2152,0.2161,0.2181,0.2193,0.222,0.2285,0.2243,0.225,0.2271,0.2363,0.2374,0.238,0.2419,0.2428,0.2431,0.2433,0.2434,0.2606,0.2609,0,0,0,0,0,0,0.2017,0.2027,0.2138,0.2145,0.2104,0.2183,0.2196,0.2213,0.2285,0.2299,0.2269,0.2274,0.2367,0.2377,0.2385,0.2509,0.2431,0.2434,0.2436,0.2604,0.2607,0.261,0,0,0,0,0,0,0.2013,0.2025,0.2133,0.2092,0.2108,0.2184,0.2202,0.2215,0.2275,0.2305,0.2319,0.2323,0.2369,0.238,0.2458,0.2509,0.2436,0.2439,0.2601,0.2605,0.2608,0.2672,0,0,0,0,0,0,0.2008,0.2023,0.2052,0.2092,0.2111,0.2191,0.2202,0.2216,0.2284,0.2293,0.2355,0.2365,0.2371,0.2453,0.2461,0.2512,0.2441,0.2597,0.2602,0.2607,0.2667,0.2678,0.2687,0,0,0,0,0,0.2002,0.2032,0.2052,0.2067,0.2142,0.2193,0.2205,0.2259,0.2286,0.2318,0.2368,0.2365,0.249,0.2457,0.2466,0.252,0.2595,0.2601,0.2607,0.2662,0.2675,0.2687,0,0,0,0,0,0,0.1988,0.2044,0.2067,0.2116,0.2166,0.2209,0.2255,0.2284,0.2347,0.2373,0.2393,0.2407,0.2495,0.25,0.2464,0.2586,0.2544,0.2552,0.2583,0.2596,0.2606,0.2602,0.2444,0,0,0,0,0,0.1996,0.2036,0.2086,0.2132,0.2161,0.2214,0.2251,0.2288,0.2341,0.2373,0.2417,0.2469,0.2517,0.2552,0.2591,0.2653,0.2663,0.2696,0.2707,0.2715,0.2721,0.2783,0.2799,0.2629,0.2629,0.2629,0,0,0.2005,0.2044,0.2069,0.2133,0.218,0.2225,0.2241,0.2313,0.2362,0.2374,0.247,0.2509,0.2543,0.2618,0.2658,0.2635,0.2772,0.2723,0.2729,0.273,0.2791,0.2808,0.2822,0.2633,0.2632,0.2632,0,0,0.203,0.2079,0.2117,0.216,0.2239,0.2269,0.2299,0.2369,0.2419,0.25,0.2528,0.26,0.2672,0.2708,0.2731,0.2821,0.2824,0.2846,0.2895,0.2957,0.2971,0.2983,0.302,0.3036,0.285,0.285,0.285,0,0.2043,0.2091,0.2139,0.2184,0.2231,0.2292,0.2342,0.2393,0.2483,0.2531,0.2546,0.2682,0.2711,0.2797,0.2834,0.2843,0.2874,0.2841,0.2968,0.2981,0.2993,0.3028,0.3044,0.2854,0.2854,0.2853,0.2853,0,0.2078,0.2135,0.2167,0.224,0.2294,0.2353,0.2422,0.2495,0.2562,0.2609,0.273,0.2777,0.2858,0.2883,0.2887,0.2993,0.2987,0.2972,0.2931,0.3013,0.3046,0.3061,0.286,0.2858,0.2857,0.2856,0,0,0.2053,0.2167,0.2183,0.2226,0.2332,0.2372,0.2472,0.2565,0.2639,0.2731,0.2827,0.2915,0.2957,0.2987,0.3015,0.3066,0.3173,0.3064,0.3065,0.3089,0.331,0.311,0.3107,0.319,0.3193,0.3195,0.3299,0,0.207,0.2152,0.2213,0.2302,0.235,0.2441,0.2521,0.2619,0.2713,0.282,0.2896,0.2997,0.2992,0.3054,0.3107,0.3165,0.3218,0.3146,0.3236,0.3238,0.3041,0.312,0.3205,0.331,0.3314,0.3316,0.3318,0,0.2074,0.2132,0.222,0.2335,0.2367,0.2435,0.2582,0.2663,0.2816,0.2896,0.3012,0.3078,0.3194,0.317,0.3304,0.3266,0.3299,0.3324,0.3328,0.3127,0.3066,0.3212,0.3346,0.3344,0.3342,0.334,0.3338,0,0.2014,0.2133,0.2204,0.2244,0.2382,0.2456,0.2544,0.2697,0.2785,0.2965,0.3052,0.3182,0.3274,0.3342,0.3408,0.3379,0.3534,0.3492,0.3339,0.3326,0.3444,0.343,0.358,0.358,0.358,0.358,0.3579,0,0.1983,0.2042,0.2189,0.2224,0.232,0.2436,0.2558,0.2671,0.2843,0.2938,0.3094,0.318,0.3328,0.3428,0.3457,0.3445,0.358,0.3357,0.3343,0.3469,0.3457,0.3455,0.3439,0.3584,0.3583,0.3582,0.3581,0,0.1897,0.1996,0.2082,0.2239,0.2296,0.2368,0.2557,0.2629,0.282,0.2957,0.3025,0.3226,0.3345,0.3459,0.3579,0.3488,0.3509,0.3472,0.3614,0.3605,0.3245,0.3232,0.3293,0.3287,0.3282,0.3278,0.3274,0,0.1851,0.1892,0.2068,0.2118,0.2197,0.2323,0.2397,0.26,0.2682,0.2945,0.2987,0.319,0.3293,0.3304,0.3434,0.3482,0.3444,0.3422,0.3307,0.3238,0.3219,0.3214,0.3207,0.3266,0.3265,0.3263,0.3262,0,0.1758,0.1846,0.1915,0.2021,0.2113,0.2192,0.2325,0.2374,0.2592,0.2789,0.2881,0.2958,0.3087,0.3171,0.3246,0.3267,0.3413,0.3367,0.3376,0.3268,0.3205,0.319,0.319,0.3244,0.3247,0.3248,0.3249,0,0.1693,0.171,0.1815,0.1893,0.1995,0.2028,0.2119,0.221,0.2323,0.2615,0.2635,0.285,0.3042,0.3063,0.3127,0.3142,0.3084,0.2963,0.2992,0.3013,0.2875,0.2751,0.2646,0,0,0,0,0,0.1608,0.1608,0.1668,0.1735,0.1829,0.1889,0.2047,0.2142,0.236,0.2355,0.2493,0.2598,0.2699,0.2818,0.2779,0.3011,0.3099,0.295,0.2973,0.3145,0.3165,0.3029,0,0,0,0,0,0,0.1545,0.1593,0.1613,0.1593,0.1603,0.1678,0.1771,0.1917,0.1936,0.2172,0.2248,0.2427,0.2575,0.269,0.2721,0.2758,0.2716,0.3095,0.3088,0.3133,0.3152,0.3168,0.3035,0,0,0,0,0]},{"header":{"parameterUnit":"m.s-1","parameterCategory":2,"la1":30.2991,"la2":30.254,"lo1":-89.0895,"lo2":-89.0444,"dy":0.0017,"dx":0.0017,"nx":28,"ny":28,"refTime":"2024-12-16T03:00:00:Z","depth":"4","parameterNumber":3,"parameterNumberName":"V-component_of_CURRENTS"},"data":[0,0,0,0,0,0,0,0,0,0,0,0,0,0,0,0,0,0,0,0,0,0,0,0,0,0,0,0,0,0,0,0,0,0,0,0,0,0,0,0,0,0,0,0,0,0,0,0,0,0,0,0,0,0,0,0,0,0,0.0246,0.0245,0,0.0202,0.0202,0.0201,0.0176,0.0176,0.0176,0.0176,0.0109,0.0108,0.0106,0,0,0,0,0,0,0,0,0,0,0,0,0,0.0259,0.0259,0.0246,0.0245,0.0245,0.0202,0.0202,0.0201,0.0176,0.0176,0.0176,0.0176,0.011,0.0108,0.0106,0,0,0,0,0,0,0,0,0,0,0,0,0,0.0239,0.0259,0.0246,0.0227,0.0224,0.0202,0.0202,0.0201,0.0176,0.0176,0.0176,0.0176,0.011,0.0108,0.0106,0.0094,0,0,0.0098,0.0097,0,0,0,0,0,0,0,0,0.024,0.0238,0.023,0.0228,0.0225,0.0194,0.0182,0.0164,0.0176,0.0195,0.0176,0.0176,0.0135,0.0131,0.0124,0.0091,0.0089,0.0098,0.0096,0.0095,0.0095,0,0,0,0,0,0,0,0.0241,0.024,0.0229,0.0229,0.0227,0.0204,0.0201,0.0178,0.0167,0.0193,0.0191,0.0186,0.0134,0.0127,0.0122,0.0088,0.0098,0.0096,0.0094,0.0093,0.0039,0.0039,0,0,0,0,0,0,0.0249,0.0241,0.023,0.0228,0.0232,0.0204,0.0201,0.0205,0.0167,0.0162,0.0186,0.0185,0.0131,0.0125,0.012,0.0118,0.0095,0.0093,0.0092,0.0039,0.0039,0.0039,0,0,0,0,0,0,0.0249,0.0249,0.0232,0.0232,0.0229,0.0204,0.0208,0.0204,0.02,0.0162,0.0156,0.0188,0.013,0.0123,0.0107,0.0115,0.0092,0.009,0.0039,0.0039,0.0039,0.0107,0,0,0,0,0,0,0.025,0.0249,0.0257,0.0233,0.0229,0.0227,0.0208,0.0203,0.0197,0.0195,0.0161,0.0155,0.013,0.0111,0.0104,0.0111,0.0088,0.0039,0.0039,0.0039,0.0104,0.0109,0.0113,0,0,0,0,0,0.0251,0.0265,0.0258,0.0256,0.024,0.0227,0.0223,0.0205,0.0197,0.02,0.0178,0.0156,0.0106,0.0109,0.0102,0.0108,0.0039,0.0039,0.0039,0.0102,0.0108,0.0113,0,0,0,0,0,0,0.027,0.0262,0.0254,0.0264,0.0249,0.0223,0.0225,0.0211,0.0195,0.0195,0.0159,0.0151,0.0139,0.0112,0.0116,0.009,0.0067,0.0066,0.0118,0.0123,0.0127,0.0144,0.0086,0,0,0,0,0,0.0279,0.029,0.0271,0.0278,0.0275,0.0251,0.0245,0.0232,0.0213,0.0207,0.0183,0.0155,0.0132,0.012,0.0096,0.0084,0.0048,0.0081,0.0085,0.0089,0.0096,0.0048,0.0049,0.0039,0.0039,0.0039,0,0,0.0286,0.0284,0.0288,0.0283,0.0272,0.0277,0.0248,0.0244,0.0248,0.0201,0.0202,0.0171,0.0132,0.0121,0.0112,0.0101,0.0072,0.0089,0.0093,0.0098,0.0049,0.005,0.0051,0.0039,0.0039,0.0039,0,0,0.0308,0.0307,0.0324,0.032,0.031,0.0298,0.0301,0.028,0.0273,0.0264,0.0232,0.0208,0.0174,0.015,0.0133,0.0144,0.0097,0.0133,0.0169,0.0123,0.0124,0.0124,0.0078,0.0073,0.0135,0.0135,0.0135,0,0.0317,0.0338,0.0325,0.0339,0.0344,0.0313,0.0332,0.032,0.0295,0.0293,0.0273,0.0223,0.0189,0.0175,0.0177,0.0156,0.012,0.0157,0.013,0.0129,0.0128,0.0081,0.0075,0.0138,0.0138,0.0137,0.0137,0,0.035,0.0368,0.0379,0.0393,0.0395,0.0405,0.039,0.0389,0.0374,0.0355,0.0335,0.0286,0.0257,0.0237,0.0211,0.0191,0.0164,0.0143,0.0121,0.0134,0.0082,0.0075,0.0143,0.0142,0.0141,0.014,0,0,0.0366,0.0398,0.0402,0.0428,0.0429,0.0438,0.0449,0.045,0.0463,0.0421,0.0426,0.0374,0.0341,0.0319,0.0276,0.0233,0.0191,0.019,0.0186,0.0153,0.0086,0.0059,0.0048,0.0164,0.0163,0.0162,0.0052,0,0.0397,0.0448,0.0451,0.05,0.0527,0.0515,0.0532,0.0527,0.0511,0.0505,0.0444,0.0431,0.0374,0.0364,0.0311,0.0225,0.0175,0.0223,0.0071,0.0067,0.0049,0.004,0.0159,0.0047,0.0045,0.0044,0.0043,0,0.0428,0.0464,0.052,0.0571,0.0582,0.0605,0.0636,0.0648,0.0625,0.0612,0.0577,0.0524,0.0464,0.0412,0.0267,0.03,0.0202,0.0125,0.0119,0.0067,0.0027,0.0029,0.0029,0.003,0.0031,0.0032,0.0033,0,0.0455,0.0512,0.0568,0.0583,0.0628,0.0656,0.068,0.068,0.0711,0.0684,0.0691,0.0599,0.0564,0.043,0.027,0.0268,0.01,0.0076,-0.0044,-0.0047,-0.0019,-0.0019,-0.0032,-0.0031,-0.0031,-0.0031,-0.0031,0,0.0488,0.0533,0.0591,0.0622,0.0697,0.0708,0.0778,0.0783,0.0803,0.0843,0.0755,0.075,0.0566,0.0447,0.0292,0.0103,0.0113,-0.004,-0.0078,0.0011,0.0016,-0.0025,-0.0023,-0.0035,-0.0034,-0.0033,-0.0033,0,0.0509,0.0542,0.0615,0.0683,0.0714,0.077,0.0865,0.0913,0.0917,0.0964,0.0963,0.0863,0.0701,0.0503,0.0278,0.0141,-0.0042,-0.0114,-0.0002,-0.0032,-0.0166,-0.0159,-0.0256,-0.0258,-0.026,-0.0261,-0.0262,0,0.0524,0.0563,0.0666,0.0724,0.0763,0.0854,0.0921,0.0968,0.1028,0.1032,0.1058,0.092,0.0822,0.0497,0.0271,-0.0038,-0.0085,-0.0184,-0.0182,-0.0162,-0.0189,-0.018,-0.0171,-0.0265,-0.0265,-0.0266,-0.0266,0,0.0556,0.0593,0.0656,0.0778,0.0867,0.0974,0.1072,0.1125,0.1174,0.1177,0.1137,0.096,0.077,0.0502,0.0257,0.0036,-0.0121,-0.0201,-0.02,-0.0198,-0.0173,-0.0197,-0.0186,-0.0271,-0.0271,-0.027,-0.027,0,0.0582,0.0632,0.0721,0.083,0.0946,0.1059,0.111,0.1179,0.1234,0.1234,0.1213,0.1003,0.0882,0.0539,0.0317,0.009,0.0026,-0.0048,-0.0055,-0.0052,0.0031,0.0094,0.0046,0,0,0,0,0,0.0605,0.0668,0.077,0.0891,0.1006,0.108,0.1199,0.1241,0.1283,0.127,0.125,0.1071,0.073,0.0584,0.0353,0.0265,-0.0027,-0.0017,-0.0119,-0.0302,-0.0295,-0.0236,0,0,0,0,0,0,0.062,0.0714,0.0769,0.0922,0.1012,0.1149,0.1229,0.1261,0.126,0.1258,0.1089,0.1,0.0675,0.0862,0.0345,0.0274,0.0174,-0.0173,-0.0179,-0.0305,-0.0299,-0.0294,-0.0231,0,0,0,0,0]}]]